Daytona Beach, FL

10:47 AM EDT on April 28, 2017 (GMT -0400)
Daytona Beach International

Weather History for KDAB - October, 2013

Change the Weather History Date:

Tuesday, October 22, 2013

  Actual Average Record
Temperature  
Mean Temperature 82 °F 72 °F  
Max Temperature 90 °F 81 °F 92 °F (2006)
Min Temperature 73 °F 64 °F 44 °F (1989)
Degree Days  
Heating Degree Days 0 0  
Month to date heating degree days 0 0  
Since 1 July heating degree days 0 0  
Cooling Degree Days 17 8  
Month to date cooling degree days 259 225  
Year to date cooling degree days 2917 2735  
Growing Degree Days 30 (Base 50)    
Moisture  
Dew Point 71 °F    
Average Humidity 74    
Maximum Humidity 94    
Minimum Humidity 53    
Precipitation  
Precipitation T in 0.11 in 3.78 in (1941)
Month to date precipitation 1.99 3.31  
Year to date precipitation 42.98 43.40  
Sea Level Pressure  
Sea Level Pressure 29.89 in    
Wind  
Wind Speed 4 mph (SW)    
Max Wind Speed 17 mph    
Max Gust Speed 24 mph    
Visibility 9 miles    
Events      
T = Trace of Precipitation, MM = Missing Value Source: NWS Daily Summary

Daily Weather History Graph

Daily Weather History Graph

Search for Another Location

Airport or City:

Trip Planner

Search our weather history database for the weather conditions in past years. The results will help you decide how hot, cold, wet, or windy it might be!

Date:

Astronomy

Oct. 22, 2013 Rise Set
Actual Time 7:30 AM EDT 6:46 PM EDT
Civil Twilight 7:06 AM EDT 7:10 PM EDT
Nautical Twilight 6:38 AM EDT 7:38 PM EDT
Astronomical Twilight 6:10 AM EDT 8:06 PM EDT
Moon 9:37 PM EDT (10/22) 10:45 AM EDT (10/22)
Length of Visible Light 12h 04m
Length of Day
11h 16m
Waning Gibbous, 87% of the Moon is Illuminated
Oct 22
Waning Gibbous
Oct 26
Last Quarter
Nov 3
New
Nov 10
First Quarter
Nov 17
Full

Hourly Weather History & Observations

Time (EDT) Temp. Heat Index Dew Point Humidity Pressure Visibility Wind Dir Wind Speed Gust Speed Precip Events Conditions
12:53 AM 75.0 °F - 73.0 °F 94% 29.97 in 9.0 mi Calm Calm - N/A   Mostly Cloudy
1:37 AM 75.2 °F - 73.4 °F 94% 29.97 in 9.0 mi Calm Calm - N/A   Mostly Cloudy
1:53 AM 73.9 °F - 72.0 °F 93% 29.96 in 9.0 mi Calm Calm - N/A   Mostly Cloudy
2:53 AM 73.0 °F - 71.1 °F 93% 29.95 in 6.0 mi Calm Calm - N/A   Scattered Clouds
3:53 AM 73.0 °F - 71.1 °F 93% 29.93 in 7.0 mi Calm Calm - N/A   Scattered Clouds
4:53 AM 73.9 °F - 72.0 °F 93% 29.93 in 8.0 mi Calm Calm - N/A   Mostly Cloudy
5:53 AM 73.9 °F - 72.0 °F 93% 29.93 in 9.0 mi Calm Calm - N/A   Mostly Cloudy
6:53 AM 73.9 °F - 72.0 °F 93% 29.94 in 8.0 mi Calm Calm - N/A   Mostly Cloudy
7:53 AM 73.9 °F - 72.0 °F 93% 29.93 in 7.0 mi Calm Calm - 0.00 in   Mostly Cloudy
8:53 AM 78.1 °F - 73.9 °F 87% 29.94 in 10.0 mi SSW 4.6 mph - N/A   Mostly Cloudy
9:53 AM 81.0 °F 86.2 °F 73.9 °F 79% 29.93 in 10.0 mi South 6.9 mph - N/A   Scattered Clouds
10:53 AM 82.9 °F 89.4 °F 73.9 °F 74% 29.92 in 10.0 mi SW 5.8 mph - N/A   Scattered Clouds
11:53 AM 84.9 °F 92.1 °F 73.9 °F 69% 29.91 in 10.0 mi SSW 6.9 mph - N/A   Scattered Clouds
12:53 PM 84.9 °F 90.7 °F 72.0 °F 65% 29.89 in 10.0 mi WSW 11.5 mph - N/A   Scattered Clouds
1:53 PM 86.0 °F 92.2 °F 72.0 °F 63% 29.86 in 10.0 mi SSW 5.8 mph - N/A   Scattered Clouds
2:53 PM 88.0 °F 92.1 °F 69.1 °F 53% 29.83 in 10.0 mi SSW 13.8 mph - N/A   Scattered Clouds
3:53 PM 88.0 °F 91.4 °F 68.0 °F 51% 29.83 in 10.0 mi SW 11.5 mph 18.4 mph N/A   Mostly Cloudy
4:53 PM 88.0 °F 92.1 °F 69.1 °F 53% 29.82 in 10.0 mi WSW 9.2 mph - N/A   Mostly Cloudy
5:53 PM 84.0 °F 87.0 °F 68.0 °F 58% 29.81 in 10.0 mi WSW 6.9 mph - N/A   Mostly Cloudy
6:53 PM 82.0 °F 84.1 °F 66.0 °F 58% 29.83 in 10.0 mi West 8.1 mph - 0.00 in   Mostly Cloudy
7:53 PM 80.1 °F 82.3 °F 66.9 °F 64% 29.84 in 10.0 mi WNW 5.8 mph - N/A   Mostly Cloudy
8:53 PM 78.1 °F - 69.1 °F 74% 29.85 in 10.0 mi WNW 3.5 mph - N/A   Mostly Cloudy
9:53 PM 75.9 °F - 69.1 °F 79% 29.85 in 10.0 mi Calm Calm - N/A   Mostly Cloudy
10:53 PM 75.9 °F - 70.0 °F 82% 29.85 in 10.0 mi WSW 3.5 mph - N/A   Overcast
11:53 PM 75.0 °F - 70.0 °F 84% 29.83 in 10.0 mi Calm Calm - N/A   Overcast